SCP
-0 -0 -0 -0 -0 0 0 0 0 0 0 0 0 0 0 0 -0 -0 0 0 0 0 0 0 -0 0 0 0 0 -0 -0 -0 -0 -0 0 0 0 0 0 -0 -0 -0 -0 0
-0 -0 -0 -0 -0 0 0 0 0 -0 0 0 0 0 0 0 0 -0 0 -0 0 0 0 0 0 0 0 0 0 0 0 0 -0 -0 -0 0 0 0 0 0 -0 0 0 0
-0 -0 -0 -0 -0 0 0 0 0 0 0 0 0 0 0 -0 0 0 0 0 0 0 0 0 0 0 0 0 0 0 0 -0 -0 -0 -0 0 -0 -0 0 0 0 0 0 -0
-0 -0 -0 -0 -0 -0 0 0 0 0 0 0 0 0 0 0 0 0 0 0 0 0 0 0 0 0 0 0 0 0 0 0 0 -0 0 -0 -0 0 0 0 -0 0 -0 -0
-0 -0 -0 -0 -0 -0 0 0 0 0 0 0 0 0 0 0 0 0 0 0 -0 0 0 0 0 0 0 0 0 0 0 -0 -0 -0 -0 0 0 0 0 0 0 0 0 0
-0 -0 -0 -0 -0 -0 0 0 0 0 0 0 0 0 -0 0 0 0 0 0 -0 0 0 0 0 0 0 0 0 0 0 0 -0 -0 -0 0 0 0 0 0 0 0 0 0
-0 -0 -0 -0 -0 -0 0 0 0 0 0 -0 -0 0 0 0 0 0 0 0 0 0 0 0 0 0 0 0 0 0 0 0 0 0 0 0 0 0 0 0 0 0 0 0
-0 -0 -0 -0 -0 -0 0 0 0 0 0 0 0 0 0 0 0 0 0 0 0 0 0 0 0 0 0 0 0 0 0 0 0 0 0 0 0 0 0 0 0 0 0 0
-0 -0 -0 -0 -0 -0 0 0 0 0 0 0 0 0 0 0 0 0 0 0 0 0 0 0 0 0 0 0 0 0 0 0 0 0 0 0 0 0 0 0 0 0 0 0
-0 -0 -0 -0 -0 -0 0 0 0 0 0 0 0 0 0 0 0 0 0 0 0 0 0 0 0 0 0 0 0 0 0 0 0 0 0 0 0 0 0 0 0 0 0 0
-0 -0 -0 -0 -0 -0 0 0 0 0 0 0 0 0 0 0 0 0 0 0 0 0 0 0 0 0 0 0 0 0 0 0 0 0 0 0 0 0 0 0 0 0 0 0
-0 -0 -0 -0 0 0 0 0 0 0 0 0 0 0 0 0 0 0 0 0 0 0 0 0 0 0 0 0 0 0 0 0 0 0 0 0 0 0 0 0 0 0 0 0
0 0 0 0 0 0 0 0 0 0 0 0 0 0 0 0 0 0 0 0 0 0 0 0 0 0 0 0 0 0 0 0 0 0 0 0 0 0 0 0 0 0 0 0
0 0 0 0 0 0 0 0 0 0 0 0 0 0 0 0 0 0 0 0 0 0 0 0 0 0 0 0 0 0 0 0 0 0 0 0 0 0 0 0 0 0 0 0
0 0 0 0 0 0 -0 -0 0 0 0 0 0 0 0 0 0 0 0 0 0 0 0 0 0 0 0 0 0 0 0 0 0 0 0 0 0 0 0 0 0 0 0 0
-0 0 0 0 0 -0 -0 0 0 0 0 0 0 0 0 0 0 0 0 0 0 0 0 0 0 0 0 0 0 0 0 0 0 0 0 0 0 0 0 0 0 0 0 0
0 0 0 0 -0 -0 0 0 0 0 0 0 0 0 0 0 0 0 0 0 0 0 0 0 0 0 0 0 0 0 0 0 0 0 0 0 0 0 0 0 0 0 0 0
0 0 0 -0 -0 -0 0 0 0 0 0 0 0 0 0 0 0 0 0 0 0 0 0 0 0 0 0 0 0 0 0 0 0 0 0 0 0 0 0 0 0 0 0 0
0 0 -0 -0 0 0 0 0 0 0 0 0 0 0 0 0 0 0 0 0 0 0 0 0 0 0 0 0 0 0 0 0 0 0 0 0 0 0 0 0 0 0 0 0
0 -0 -0 0 0 0 0 0 0 0 0 0 0 0 0 0 0 0 0 0 0 0 0 0 0 0 0 0 0 0 0 0 0 0 0 0 0 0 0 0 0 0 0 0
0 0 0 0 0 0 0 0 0 0 0 0 0 0 0 0 0 0 0 0 0 0 0 0 0 0 1 0 0 1 0 0 0 0 0 0 0 0 0 0 0 0 0 0
0 0 0 0 0 0 0 0 0 0 0 0 0 0 0 0 0 0 0 0 0 0 0 0 0 1 1 1 1 0 0 0 0 0 0 0 0 0 0 0 0 0 0 0
0 0 0 0 0 0 0 0 0 0 0 0 0 0 0 0 0 0 0 0 0 0 0 0 0 1 1 0 0 0 0 0 0 0 0 0 0 0 0 0 0 0 0 0
0 0 0 0 0 0 0 0 0 0 0 0 0 0 0 0 0 0 0 0 0 0 0 0 0 0 1 0 0 0 0 0 0 0 0 0 0 0 0 0 0 0 0 0
0 0 0 0 0 0 0 0 0 0 0 0 0 0 0 0 0 0 0 0 0 0 0 0 0 0 0 0 0 0 0 0 0 0 0 0 0 0 0 -0 0 0 0 0
0 0 0 0 0 0 0 0 0 0 0 0 0 0 0 0 0 0 0 0 0 0 0 0 0 0 0 0 0 0 0 0 0 0 0 0 0 0 0 0 0 0 0 0
0 0 0 0 0 0 0 0 0 0 0 0 0 0 0 0 0 0 0 0 0 0 0 0 0 0 0 0 0 0 -0 0 0 0 0 0 -0 0 0 0 0 0 0 0
Wind_Speed_500mb
34 26 18 11 19 28 35 22 15 16 20 22 27 20 4 5 18 13 10 14 14 9 9 17 22 10 6 8 16 22 17 20 23 32 7 11 20 27 27 20 22 22 22 27
35 25 19 9 19 34 20 22 6 16 24 14 18 8 16 16 13 15 12 13 9 2 17 13 18 15 17 4 18 10 18 14 22 28 29 20 15 22 22 21 29 31 24 22
37 29 20 8 14 32 22 11 12 18 30 37 25 20 24 23 11 8 11 12 7 12 19 16 17 13 12 7 20 12 10 31 35 28 37 32 24 26 27 29 22 30 30 37
39 31 22 12 8 25 22 15 5 8 18 27 24 8 13 24 18 23 12 12 19 19 18 19 20 24 23 19 21 17 21 32 31 35 35 31 37 34 34 35 35 36 40 43
40 36 28 20 6 16 16 15 10 12 25 19 30 14 23 27 20 6 18 19 30 14 18 20 19 12 16 17 17 21 25 32 27 37 41 36 43 43 41 39 39 39 41 40
39 37 32 24 11 17 2 10 12 14 15 23 23 27 26 27 28 8 22 24 21 17 17 21 14 29 32 33 26 25 31 27 29 37 39 37 33 32 32 27 21 22 29 35
39 37 34 29 23 18 16 10 8 17 20 18 20 24 12 22 24 21 27 14 24 14 13 18 31 41 42 39 35 37 29 28 24 28 32 37 38 12 11 19 24 24 28 22
39 36 34 31 26 20 15 15 5 11 18 16 19 17 22 21 24 20 31 31 28 10 19 21 29 28 35 34 34 33 32 22 25 28 29 32 34 8 13 16 21 31 29 16
40 36 32 29 25 20 13 15 8 6 17 16 21 19 23 23 24 27 33 27 15 20 24 22 32 26 29 13 10 10 19 23 21 26 31 36 16 11 6 13 28 18 14 15
40 38 34 29 25 21 15 11 11 5 17 19 9 11 18 21 26 21 12 16 17 28 22 26 29 32 34 35 29 19 18 21 27 25 28 32 25 18 6 15 8 13 18 20
39 37 36 33 27 23 17 8 12 5 14 28 23 20 20 22 17 18 5 10 20 21 23 23 28 30 29 31 30 30 28 24 25 25 32 40 14 3 14 16 24 29 36 33
39 38 35 33 29 22 20 5 18 15 14 21 23 26 27 30 30 25 29 28 11 9 12 17 17 22 24 20 26 22 29 29 25 30 17 6 1 16 27 26 28 38 35 33
40 38 37 35 31 25 19 17 18 16 16 36 24 15 11 19 36 32 33 33 29 38 31 32 22 26 18 23 24 29 28 30 26 25 26 34 35 24 28 30 41 40 32 30
43 41 40 36 30 25 21 12 14 11 13 11 2 6 9 5 12 23 42 47 35 23 28 31 22 26 30 26 30 28 29 13 16 23 31 41 40 40 29 30 28 30 30 32
45 43 42 35 27 21 19 10 10 3 3 14 24 34 25 19 22 27 24 28 35 41 39 25 24 41 32 31 30 22 33 26 22 23 27 31 35 31 31 31 35 32 36 33
46 46 38 29 20 15 10 4 5 6 7 11 8 6 13 14 14 16 21 32 37 42 44 35 46 52 39 16 25 36 34 31 29 30 27 33 35 34 30 37 41 44 43 41
47 46 34 22 14 6 4 3 7 10 9 9 13 9 9 8 11 13 15 20 27 30 37 44 42 42 32 25 30 43 45 34 34 35 34 32 33 31 32 29 36 38 39 39
44 40 24 11 8 12 11 3 8 6 5 9 8 8 14 5 15 11 6 19 20 29 34 33 35 38 42 25 32 40 41 37 32 27 32 35 33 35 38 36 36 40 40 44
39 29 12 5 10 3 6 17 10 5 7 12 8 9 8 10 18 16 19 15 14 33 22 28 26 22 21 23 37 35 29 33 24 29 35 37 36 36 37 35 37 38 43 40
25 17 8 6 3 13 13 6 4 7 10 11 12 14 16 19 23 21 17 16 11 15 17 28 21 25 44 47 44 37 15 23 30 28 25 27 32 37 41 45 43 39 37 33
19 11 6 13 13 5 7 7 9 12 10 14 9 10 16 18 17 16 12 10 11 11 17 13 15 21 5 36 21 10 13 16 18 20 24 28 32 38 42 41 38 36 34 33
26 20 22 9 5 8 8 8 8 8 2 7 4 15 23 13 10 12 10 11 9 11 3 7 14 7 18 10 5 3 13 18 19 22 27 31 34 37 39 40 34 33 30 27
13 6 5 5 4 3 10 12 9 7 6 8 12 16 12 14 12 15 8 9 13 16 7 17 10 20 12 7 6 9 17 22 26 28 29 29 30 34 35 35 31 30 27 24
7 6 6 9 10 10 4 8 9 3 10 18 20 22 19 9 7 10 7 9 11 9 13 8 5 10 17 9 10 15 21 22 23 22 23 25 28 33 36 31 27 27 27 28
7 8 8 11 10 7 7 11 9 11 12 20 20 23 25 13 9 7 7 7 11 4 7 8 27 32 23 22 19 19 21 21 23 25 27 28 29 31 31 25 17 19 22 20
6 10 12 14 13 15 12 13 15 9 14 17 18 7 8 13 7 8 8 6 2 7 12 24 26 33 29 27 25 24 27 28 26 28 29 29 26 27 28 22 16 11 11 11
7 12 19 22 19 19 19 14 15 13 14 15 10 7 4 14 7 4 2 5 13 26 33 26 31 35 36 32 28 26 29 28 26 25 26 24 23 23 22 17 17 13 12 9
Wind_Direction_500mb
19 22 33 92 146 152 158 201 220 178 192 227 230 246 164 13 152 192 223 301 310 253 220 252 245 256 179 89 294 291 306 309 303 300 287 240 282 285 293 292 293 289 309 301
22 21 32 82 158 165 174 229 154 176 186 233 202 166 193 229 194 197 207 216 263 234 274 260 270 268 87 340 275 329 311 263 278 271 242 181 246 272 268 282 294 279 278 283
24 23 25 51 170 184 206 263 180 165 212 257 281 187 211 197 238 257 281 317 291 246 251 232 271 238 237 197 274 44 295 270 273 281 307 318 295 286 281 275 267 285 289 303
22 25 24 27 167 190 199 243 266 157 196 223 240 270 234 229 178 239 226 239 259 264 260 251 241 249 263 192 182 240 248 267 283 289 294 290 288 281 282 279 283 285 298 302
16 22 25 25 156 176 197 307 312 200 281 207 215 185 242 255 249 216 225 233 285 236 265 276 272 293 273 276 171 231 256 263 267 274 276 274 274 273 273 272 273 276 285 288
16 19 25 30 57 133 207 303 290 275 202 222 224 238 217 254 267 269 266 298 274 248 271 305 294 301 294 285 281 274 281 288 288 279 291 293 278 266 269 285 287 305 305 321
18 19 21 28 36 56 75 348 308 269 254 226 227 241 268 262 264 254 272 245 273 299 302 288 274 269 266 266 264 265 259 256 269 273 280 270 274 18 302 284 295 295 316 333
16 19 19 22 28 37 62 10 17 299 274 284 239 242 262 242 248 253 262 269 261 288 277 269 267 263 245 245 254 250 251 264 268 263 256 274 281 297 344 354 313 311 297 350
14 14 16 14 17 24 54 1 20 296 296 270 330 294 253 255 249 234 235 254 266 263 264 266 261 256 274 263 229 233 263 246 256 259 268 274 297 87 78 335 292 51 4 344
11 11 11 13 11 12 11 356 7 325 278 286 306 276 291 262 261 273 286 240 217 243 253 255 257 262 260 260 259 233 222 236 251 249 257 269 283 98 108 268 345 343 324 318
2 5 5 5 6 5 14 323 352 14 278 281 280 279 271 267 255 270 280 244 237 256 240 256 262 264 263 267 266 268 268 249 247 244 261 268 32 119 247 347 325 312 313 313
355 354 356 359 359 1 358 345 330 321 262 261 288 265 253 250 261 287 277 249 293 274 261 234 260 264 264 262 277 249 247 251 279 291 307 111 193 279 286 290 300 297 295 293
349 347 347 348 350 350 348 339 336 339 293 299 254 263 249 254 246 237 258 262 267 258 269 296 286 277 274 270 262 259 257 250 260 270 282 290 294 292 296 291 291 291 282 295
346 342 341 341 341 341 343 347 312 343 304 282 162 300 269 245 259 243 237 250 266 266 267 267 265 265 260 263 275 274 284 309 291 280 273 273 275 282 298 297 296 284 280 276
344 340 337 336 339 337 337 357 351 325 323 320 305 290 273 274 256 253 247 242 247 250 249 244 251 260 267 268 276 259 272 280 274 279 285 299 299 293 294 292 290 279 285 284
343 340 338 338 338 340 34 192 5 47 353 298 291 336 278 280 276 265 259 238 245 244 245 252 262 261 259 261 261 263 259 261 278 278 282 279 281 282 283 282 282 274 272 278
341 341 339 340 349 3 257 313 200 321 334 273 288 282 147 291 280 254 254 241 243 241 249 244 261 267 240 258 262 276 276 266 261 275 280 284 281 281 276 298 294 288 278 266
339 340 342 354 25 59 32 340 332 326 274 258 275 279 266 348 292 274 223 259 238 241 247 255 241 248 247 258 260 274 276 275 277 281 275 271 282 287 288 284 288 284 273 267
339 340 355 48 41 256 255 311 302 249 225 297 262 300 326 350 299 294 270 251 262 244 240 239 256 249 245 242 238 259 274 272 287 294 294 292 286 283 283 288 292 293 281 266
347 20 327 196 255 312 314 319 159 222 202 232 260 289 273 293 315 298 281 252 235 268 239 235 240 253 263 265 262 274 301 295 286 284 284 292 300 298 297 292 286 289 285 271
2 340 289 273 303 321 243 262 237 168 229 201 243 292 315 317 308 318 294 299 293 256 268 222 261 260 314 233 239 319 288 267 264 275 284 293 300 301 298 299 281 277 277 270
315 297 296 310 244 243 236 230 176 238 311 30 305 280 281 296 292 266 258 255 248 253 68 237 261 58 73 87 107 256 276 275 277 287 293 299 302 304 300 297 275 269 274 275
328 336 285 248 201 346 229 192 208 182 36 346 303 299 289 247 249 261 254 248 247 296 232 245 306 103 96 68 33 327 302 296 290 292 297 300 305 311 309 296 277 264 268 280
281 271 296 233 188 238 253 328 32 26 268 288 312 299 289 274 252 277 253 262 309 235 252 27 325 47 62 3 355 329 320 316 310 304 304 308 315 318 319 305 273 263 268 278
274 284 245 227 277 294 265 258 284 264 277 292 310 290 249 265 248 248 276 257 244 307 53 20 355 356 359 351 343 339 334 333 326 316 315 315 320 324 328 325 302 273 273 282
258 245 263 238 251 249 226 250 269 292 292 300 265 293 276 235 257 226 221 267 304 351 0 343 337 348 344 327 322 327 324 323 322 318 314 312 312 320 326 325 324 297 276 272
242 247 237 255 279 281 291 290 287 293 285 275 285 255 286 302 249 243 154 237 320 345 331 315 323 329 321 309 311 331 328 323 325 328 326 318 312 313 316 329 325 312 285 244
Wind_Speed_850mb
34 26 18 11 19 28 35 22 15 16 20 22 27 20 4 5 18 13 10 14 14 9 9 17 22 10 6 8 16 22 17 20 23 32 7 11 20 27 27 20 22 22 22 27
35 25 19 9 19 34 20 22 6 16 24 14 18 8 16 16 13 15 12 13 9 2 17 13 18 15 17 4 18 10 18 14 22 28 29 20 15 22 22 21 29 31 24 22
37 29 20 8 14 32 22 11 12 18 30 37 25 20 24 23 11 8 11 12 7 12 19 16 17 13 12 7 20 12 10 31 35 28 37 32 24 26 27 29 22 30 30 37
39 31 22 12 8 25 22 15 5 8 18 27 24 8 13 24 18 23 12 12 19 19 18 19 20 24 23 19 21 17 21 32 31 35 35 31 37 34 34 35 35 36 40 43
40 36 28 20 6 16 16 15 10 12 25 19 30 14 23 27 20 6 18 19 30 14 18 20 19 12 16 17 17 21 25 32 27 37 41 36 43 43 41 39 39 39 41 40
39 37 32 24 11 17 2 10 12 14 15 23 23 27 26 27 28 8 22 24 21 17 17 21 14 29 32 33 26 25 31 27 29 37 39 37 33 32 32 27 21 22 29 35
39 37 34 29 23 18 16 10 8 17 20 18 20 24 12 22 24 21 27 14 24 14 13 18 31 41 42 39 35 37 29 28 24 28 32 37 38 12 11 19 24 24 28 22
39 36 34 31 26 20 15 15 5 11 18 16 19 17 22 21 24 20 31 31 28 10 19 21 29 28 35 34 34 33 32 22 25 28 29 32 34 8 13 16 21 31 29 16
40 36 32 29 25 20 13 15 8 6 17 16 21 19 23 23 24 27 33 27 15 20 24 22 32 26 29 13 10 10 19 23 21 26 31 36 16 11 6 13 28 18 14 15
40 38 34 29 25 21 15 11 11 5 17 19 9 11 18 21 26 21 12 16 17 28 22 26 29 32 34 35 29 19 18 21 27 25 28 32 25 18 6 15 8 13 18 20
39 37 36 33 27 23 17 8 12 5 14 28 23 20 20 22 17 18 5 10 20 21 23 23 28 30 29 31 30 30 28 24 25 25 32 40 14 3 14 16 24 29 36 33
39 38 35 33 29 22 20 5 18 15 14 21 23 26 27 30 30 25 29 28 11 9 12 17 17 22 24 20 26 22 29 29 25 30 17 6 1 16 27 26 28 38 35 33
40 38 37 35 31 25 19 17 18 16 16 36 24 15 11 19 36 32 33 33 29 38 31 32 22 26 18 23 24 29 28 30 26 25 26 34 35 24 28 30 41 40 32 30
43 41 40 36 30 25 21 12 14 11 13 11 2 6 9 5 12 23 42 47 35 23 28 31 22 26 30 26 30 28 29 13 16 23 31 41 40 40 29 30 28 30 30 32
45 43 42 35 27 21 19 10 10 3 3 14 24 34 25 19 22 27 24 28 35 41 39 25 24 41 32 31 30 22 33 26 22 23 27 31 35 31 31 31 35 32 36 33
46 46 38 29 20 15 10 4 5 6 7 11 8 6 13 14 14 16 21 32 37 42 44 35 46 52 39 16 25 36 34 31 29 30 27 33 35 34 30 37 41 44 43 41
47 46 34 22 14 6 4 3 7 10 9 9 13 9 9 8 11 13 15 20 27 30 37 44 42 42 32 25 30 43 45 34 34 35 34 32 33 31 32 29 36 38 39 39
44 40 24 11 8 12 11 3 8 6 5 9 8 8 14 5 15 11 6 19 20 29 34 33 35 38 42 25 32 40 41 37 32 27 32 35 33 35 38 36 36 40 40 44
39 29 12 5 10 3 6 17 10 5 7 12 8 9 8 10 18 16 19 15 14 33 22 28 26 22 21 23 37 35 29 33 24 29 35 37 36 36 37 35 37 38 43 40
25 17 8 6 3 13 13 6 4 7 10 11 12 14 16 19 23 21 17 16 11 15 17 28 21 25 44 47 44 37 15 23 30 28 25 27 32 37 41 45 43 39 37 33
19 11 6 13 13 5 7 7 9 12 10 14 9 10 16 18 17 16 12 10 11 11 17 13 15 21 5 36 21 10 13 16 18 20 24 28 32 38 42 41 38 36 34 33
26 20 22 9 5 8 8 8 8 8 2 7 4 15 23 13 10 12 10 11 9 11 3 7 14 7 18 10 5 3 13 18 19 22 27 31 34 37 39 40 34 33 30 27
13 6 5 5 4 3 10 12 9 7 6 8 12 16 12 14 12 15 8 9 13 16 7 17 10 20 12 7 6 9 17 22 26 28 29 29 30 34 35 35 31 30 27 24
7 6 6 9 10 10 4 8 9 3 10 18 20 22 19 9 7 10 7 9 11 9 13 8 5 10 17 9 10 15 21 22 23 22 23 25 28 33 36 31 27 27 27 28
7 8 8 11 10 7 7 11 9 11 12 20 20 23 25 13 9 7 7 7 11 4 7 8 27 32 23 22 19 19 21 21 23 25 27 28 29 31 31 25 17 19 22 20
6 10 12 14 13 15 12 13 15 9 14 17 18 7 8 13 7 8 8 6 2 7 12 24 26 33 29 27 25 24 27 28 26 28 29 29 26 27 28 22 16 11 11 11
7 12 19 22 19 19 19 14 15 13 14 15 10 7 4 14 7 4 2 5 13 26 33 26 31 35 36 32 28 26 29 28 26 25 26 24 23 23 22 17 17 13 12 9
Wind_Direction_850mb
19 22 33 92 146 152 158 201 220 178 192 227 230 246 164 13 152 192 223 301 310 253 220 252 245 256 179 89 294 291 306 309 303 300 287 240 282 285 293 292 293 289 309 301
22 21 32 82 158 165 174 229 154 176 186 233 202 166 193 229 194 197 207 216 263 234 274 260 270 268 87 340 275 329 311 263 278 271 242 181 246 272 268 282 294 279 278 283
24 23 25 51 170 184 206 263 180 165 212 257 281 187 211 197 238 257 281 317 291 246 251 232 271 238 237 197 274 44 295 270 273 281 307 318 295 286 281 275 267 285 289 303
22 25 24 27 167 190 199 243 266 157 196 223 240 270 234 229 178 239 226 239 259 264 260 251 241 249 263 192 182 240 248 267 283 289 294 290 288 281 282 279 283 285 298 302
16 22 25 25 156 176 197 307 312 200 281 207 215 185 242 255 249 216 225 233 285 236 265 276 272 293 273 276 171 231 256 263 267 274 276 274 274 273 273 272 273 276 285 288
16 19 25 30 57 133 207 303 290 275 202 222 224 238 217 254 267 269 266 298 274 248 271 305 294 301 294 285 281 274 281 288 288 279 291 293 278 266 269 285 287 305 305 321
18 19 21 28 36 56 75 348 308 269 254 226 227 241 268 262 264 254 272 245 273 299 302 288 274 269 266 266 264 265 259 256 269 273 280 270 274 18 302 284 295 295 316 333
16 19 19 22 28 37 62 10 17 299 274 284 239 242 262 242 248 253 262 269 261 288 277 269 267 263 245 245 254 250 251 264 268 263 256 274 281 297 344 354 313 311 297 350
14 14 16 14 17 24 54 1 20 296 296 270 330 294 253 255 249 234 235 254 266 263 264 266 261 256 274 263 229 233 263 246 256 259 268 274 297 87 78 335 292 51 4 344
11 11 11 13 11 12 11 356 7 325 278 286 306 276 291 262 261 273 286 240 217 243 253 255 257 262 260 260 259 233 222 236 251 249 257 269 283 98 108 268 345 343 324 318
2 5 5 5 6 5 14 323 352 14 278 281 280 279 271 267 255 270 280 244 237 256 240 256 262 264 263 267 266 268 268 249 247 244 261 268 32 119 247 347 325 312 313 313
355 354 356 359 359 1 358 345 330 321 262 261 288 265 253 250 261 287 277 249 293 274 261 234 260 264 264 262 277 249 247 251 279 291 307 111 193 279 286 290 300 297 295 293
349 347 347 348 350 350 348 339 336 339 293 299 254 263 249 254 246 237 258 262 267 258 269 296 286 277 274 270 262 259 257 250 260 270 282 290 294 292 296 291 291 291 282 295
346 342 341 341 341 341 343 347 312 343 304 282 162 300 269 245 259 243 237 250 266 266 267 267 265 265 260 263 275 274 284 309 291 280 273 273 275 282 298 297 296 284 280 276
344 340 337 336 339 337 337 357 351 325 323 320 305 290 273 274 256 253 247 242 247 250 249 244 251 260 267 268 276 259 272 280 274 279 285 299 299 293 294 292 290 279 285 284
343 340 338 338 338 340 34 192 5 47 353 298 291 336 278 280 276 265 259 238 245 244 245 252 262 261 259 261 261 263 259 261 278 278 282 279 281 282 283 282 282 274 272 278
341 341 339 340 349 3 257 313 200 321 334 273 288 282 147 291 280 254 254 241 243 241 249 244 261 267 240 258 262 276 276 266 261 275 280 284 281 281 276 298 294 288 278 266
339 340 342 354 25 59 32 340 332 326 274 258 275 279 266 348 292 274 223 259 238 241 247 255 241 248 247 258 260 274 276 275 277 281 275 271 282 287 288 284 288 284 273 267
339 340 355 48 41 256 255 311 302 249 225 297 262 300 326 350 299 294 270 251 262 244 240 239 256 249 245 242 238 259 274 272 287 294 294 292 286 283 283 288 292 293 281 266
347 20 327 196 255 312 314 319 159 222 202 232 260 289 273 293 315 298 281 252 235 268 239 235 240 253 263 265 262 274 301 295 286 284 284 292 300 298 297 292 286 289 285 271
2 340 289 273 303 321 243 262 237 168 229 201 243 292 315 317 308 318 294 299 293 256 268 222 261 260 314 233 239 319 288 267 264 275 284 293 300 301 298 299 281 277 277 270
315 297 296 310 244 243 236 230 176 238 311 30 305 280 281 296 292 266 258 255 248 253 68 237 261 58 73 87 107 256 276 275 277 287 293 299 302 304 300 297 275 269 274 275
328 336 285 248 201 346 229 192 208 182 36 346 303 299 289 247 249 261 254 248 247 296 232 245 306 103 96 68 33 327 302 296 290 292 297 300 305 311 309 296 277 264 268 280
281 271 296 233 188 238 253 328 32 26 268 288 312 299 289 274 252 277 253 262 309 235 252 27 325 47 62 3 355 329 320 316 310 304 304 308 315 318 319 305 273 263 268 278
274 284 245 227 277 294 265 258 284 264 277 292 310 290 249 265 248 248 276 257 244 307 53 20 355 356 359 351 343 339 334 333 326 316 315 315 320 324 328 325 302 273 273 282
258 245 263 238 251 249 226 250 269 292 292 300 265 293 276 235 257 226 221 267 304 351 0 343 337 348 344 327 322 327 324 323 322 318 314 312 312 320 326 325 324 297 276 272
242 247 237 255 279 281 291 290 287 293 285 275 285 255 286 302 249 243 154 237 320 345 331 315 323 329 321 309 311 331 328 323 325 328 326 318 312 313 316 329 325 312 285 244